www.pogodaiklimat.ru
ПОГОДА в Рацибуже

Архив погоды в Рацибуже (Польша)

Время
(UTC), дата
19 13.05
20 13.05
21 13.05
22 13.05
23 13.05
00 14.05
01 14.05
02 14.05
03 14.05
04 14.05
05 14.05
06 14.05
07 14.05
08 14.05
09 14.05
10 14.05
11 14.05
12 14.05
13 14.05
14 14.05
15 14.05
16 14.05
17 14.05
18 14.05
19 14.05
20 14.05
21 14.05
22 14.05
23 14.05
00 15.05
01 15.05
02 15.05
03 15.05
04 15.05
05 15.05
06 15.05
07 15.05
08 15.05
09 15.05
10 15.05
11 15.05
12 15.05
13 15.05
14 15.05
15 15.05
16 15.05
17 15.05
18 15.05
19 15.05
20 15.05
21 15.05
22 15.05
23 15.05
00 16.05
01 16.05
02 16.05
03 16.05
04 16.05
05 16.05
06 16.05
07 16.05
08 16.05
09 16.05
10 16.05
11 16.05
12 16.05
13 16.05
14 16.05
15 16.05
16 16.05
17 16.05
18 16.05
19 16.05
20 16.05
21 16.05
22 16.05
23 16.05
00 17.05
01 17.05
02 17.05
03 17.05
04 17.05
05 17.05
06 17.05
07 17.05
08 17.05
09 17.05
10 17.05
11 17.05
12 17.05
13 17.05
14 17.05
15 17.05
16 17.05
17 17.05
18 17.05
19 17.05
20 17.05
21 17.05
22 17.05
23 17.05
00 18.05
01 18.05
02 18.05
03 18.05
04 18.05
05 18.05
06 18.05
07 18.05
08 18.05
09 18.05
10 18.05
11 18.05
12 18.05
13 18.05
14 18.05
15 18.05
16 18.05
17 18.05
18 18.05
19 18.05
20 18.05
21 18.05
22 18.05
23 18.05
00 19.05
01 19.05
02 19.05
03 19.05
04 19.05
05 19.05
06 19.05
07 19.05
08 19.05
09 19.05
10 19.05
11 19.05
12 19.05
13 19.05
14 19.05
15 19.05
16 19.05
17 19.05
18 19.05
19 19.05
20 19.05
21 19.05
22 19.05
23 19.05
00 20.05
01 20.05
02 20.05
03 20.05
04 20.05
05 20.05
06 20.05
07 20.05
08 20.05
09 20.05
10 20.05
11 20.05
12 20.05
13 20.05
14 20.05
15 20.05
16 20.05
17 20.05
18 20.05
Ветер
(напр.,м/с)
Видим. Явления Облачность Т
(С)
Тd
(С)
f
(%)
Тe
(С)
Тes
(С)
Комфортность P
(гПа)
Po
(гПа)
Тmin
(С)
Tmax
(С)
R
(мм)
R24
(мм)
S
(см)
В 2 35 км н/о +16.0 +1.7 38 +16 +16 1016.5 992.0
СВ 1 50 км н/о +14.6 +0.4 38 +15 +15 1016.7 992.1
СВ 1 40 км н/о +13.4 +0.4 41 +14 +14 1016.9 992.2
С 1 45 км н/о +9.9 +2.5 60 +10 +10 1017.0 992.0
С 2 40 км н/о +10.1 +2.4 59 +9 +9 1016.9 991.9
С 1 40 км н/о +10.4 +1.5 54 +10 +10 1016.5 991.5
С 1 35 км н/о +8.1 +1.9 65 +8 +8 1016.7 991.5
СЗ 1 30 км н/о +4.2 +2.1 86 +3 +3 1017.0 991.5
З 1 22 км н/о +4.3 +3.3 93 +3 +3 1017.0 991.5
ЮЗ 2 18 км н/о +4.9 +3.9 93 +2 +2 1017.3 991.8
З 1 30 км н/о +7.9 +4.5 79 +7 +7 1017.0 991.8
В 2 22 км 1/0
[Ci fib]
+10.7 +4.6 66 +10 +14 1016.9 991.9 +4.1 +18.3
В 1 25 км 1/1 1000 м
[Cu hum Ci fib]
+12.7 +5.8 63 +13 +21 1016.9 992.1
Ю 2 30 км 1/1 1500 м
[Cu med, cong Ci fib]
+15.2 +6.2 55 +15 +25 1016.5 991.9
ЮВ 2 30 км 1/1 1500 м
[Cu med, cong Ci fib]
+17.8 +6.6 48 +18 +31 опасность простуды 1016.1 991.8
ЮВ 3 30 км 3/1 1500 м
[Cu med, cong Ci fib]
+19.8 +5.8 40 +21 +32 комфорт 1015.6 991.4
ЮВ 3 35 км 3/1 1500 м
[Cu med, cong Ci fib]
+21.1 +4.2 33 +21 +33 комфорт 1015.2 991.2
В 3 {7} 45 км 3/1 1500 м
[Cu med, cong Ci fib]
+21.8 +3.4 30 +22 +33 комфорт 1014.7 990.7
ЮВ 2 45 км 3/1 1500 м
[Cu med, cong Ci fib]
+22.2 +0.7 24 +22 +33 комфорт 1014.2 990.3
В 3 45 км 3/1 1500 м
[Cu med, cong Ci fib]
+22.5 +0.9 24 +22 +29 комфорт 1013.9 990.0
В 2 45 км 1/1 1500 м
[Sc diur, vesp Ci fib]
+22.6 +2.1 26 +22 +28 комфорт 1013.6 989.7
В 3 45 км 1/1 1500 м
[Sc diur, vesp Ci fib]
+22.3 +1.9 26 +22 +24 комфорт 1013.3 989.4
В 3 45 км 1/1 1500 м
[Sc]
+21.3 +2.5 29 +21 +22 комфорт 1013.6 989.6
В 3 40 км 1/1 1500 м
[Sc]
+19.7 +3.4 34 +20 +20 1014.0 989.9 +10.6 +22.9
СВ 2 35 км н/о +17.5 +3.4 39 +18 +18 1014.6 990.3
СВ 2 45 км н/о +16.5 +3.5 42 +17 +17 1015.1 990.7
СВ 2 40 км н/о +15.5 +3.6 45 +16 +16 1015.0 990.5
В 2 50 км н/о +15.1 +3.9 47 +15 +15 1015.0 990.5
В 2 45 км н/о +14.3 +4.0 50 +14 +14 1015.1 990.5
ЮВ 2 50 км н/о +13.9 +4.2 52 +14 +14 1014.9 990.3
ЮВ 2 45 км н/о +13.0 +4.2 55 +12 +12 1015.1 990.4
ЮВ 2 40 км н/о +12.5 +4.0 56 +12 +12 1015.4 990.6
ЮВ 2 50 км н/о +11.6 +4.1 60 +11 +11 1015.6 990.8
ЮВ 1 45 км н/о +11.5 +5.6 67 +12 +12 1015.9 991.0
ЮВ 1 35 км н/о +12.7 +5.6 62 +13 +13 1016.0 991.2
ЮВ 2 35 км 9/0
[Ac trans]
+14.7 +5.5 54 +15 +17 1016.1 991.5 +11.2 +19.7
ЮВ 3 30 км 9/0
[Ac trans]
+14.9 +5.4 53 +14 +17 1016.4 991.8
ЮВ 3 30 км 4/0
[Ac trans]
+17.4 +6.6 49 +17 +25 1016.0 991.6
В 3 35 км 3/1 1500 м
[Cu hum Ac trans]
+20.0 +5.6 39 +21 +30 комфорт 1015.6 991.5
ЮВ 3 40 км 1/1 1500 м
[Cu med, cong]
+20.9 +4.9 35 +22 +34 комфорт 1015.4 991.3
ЮВ 3 35 км 3/3 1500 м
[Cu med, cong]
+21.6 +4.6 33 +22 +32 комфорт 1015.1 991.1
В 3 {12} 35 км 4/4 2000 м
[Cu med, cong]
+22.4 +5.3 33 +23 +31 комфорт 1014.7 990.8
В 4 35 км 3/3 2000 м
[Cu med, cong]
+22.6 +4.1 30 +23 +29 комфорт 1014.3 990.4
ЮВ 4 40 км 3/3 2000 м
[Cu med, cong]
+22.5 +4.0 30 +23 +27 комфорт 1014.0 990.1
В 4 40 км 1/1 2000 м
[Sc diur, vesp]
+22.2 +3.8 30 +22 +26 комфорт 1013.8 989.9
ЮВ 4 35 км 3/3 2000 м
[Sc]
+21.9 +4.9 33 +22 +24 комфорт 1013.7 989.8
В 4 35 км 4/4 2000 м
[Sc]
+21.2 +5.1 35 +22 +22 комфорт 1014.0 990.0
В 4 35 км 4/3 2000 м
[Sc Ac trans]
+19.7 +5.0 38 +20 +20 1014.2 990.1 +14.5 +22.9
В 3 {8} 40 км в посл. час морось н/о +18.2 +5.1 42 +18 +18 1014.7 990.4
В 5-10 {10} 22 км в посл. час туман н/о +17.8 +3.6 39 +17 +17 1014.8 990.5
ЮВ 3 {10} 29 км н/о +16.4 +3.8 43 +16 +16 1015.4 991.0
ЮВ 3 26 км н/о +15.4 +4.4 48 +15 +15 1015.7 991.2
ЮВ 2 17 км н/о +14.0 +4.8 54 +14 +14 1016.2 991.5
ЮВ 1 {10} 18 км н/о +11.6 +5.7 67 +12 +12 1016.5 991.6 0.0
ЮВ 1 24 км н/о +11.2 +5.9 70 +11 +11 1016.5 991.6
ЮВ 1 21 км н/о +9.4 +5.8 78 +9 +9 1016.8 991.7
Ю 2 20 км н/о +8.4 +5.7 83 +7 +7 1017.1 991.9
ЮВ 2 22 км н/о +10.2 +5.8 74 +9 +9 1017.2 992.2
ЮВ 2 21 км н/о +12.0 +7.3 73 +11 +11 1017.3 992.4
ЮВ 3 30 км 1/0
[Ac und]
+14.9 +7.4 61 +14 +18 1016.9 992.3 +7.6 +19.7 0.0 0.0
ЮВ 2 30 км 1/0
[Ci fib]
+17.3 +7.9 54 +18 +25 1016.7 992.3
ЮВ 3 45 км 1/1 1500 м
[Cu hum Ci fib]
+19.1 +6.9 45 +20 +28 1016.2 992.0
ЮВ 3 45 км 3/3 1500 м
[Cu med, cong Ci fib]
+20.3 +7.3 43 +22 +30 комфорт 1015.8 991.7
В 4 45 км 6/6 1500 м
[Cu med, cong]
+21.3 +6.4 38 +22 +26 комфорт 1015.1 991.1
ЮВ 4 {9} 45 км 8/6 2000 м
[Cu med, cong Ci sp]
+22.0 +5.8 35 +23 +27 комфорт 1014.6 990.6
ЮВ 4 {9} 40 км 9/6 2000 м
[Cu med, cong Ac cuf Ci sp]
+21.6 +6.7 38 +22 +25 комфорт 1014.2 990.2
ЮВ 3 {10} 40 км 9/5 2000 м
[Cu med, cong Ac cuf Ci sp]
+22.0 +6.2 36 +23 +26 комфорт 1013.9 990.0
ЮВ 3 40 км 9/4 2000 м
[Cu med, cong Ac trans Ci sp]
+22.3 +6.1 35 +23 +26 комфорт 1013.5 989.6
В 3 {10} 40 км 9/4 2000 м
[Cu med, cong Ac trans Cs]
+22.6 +5.9 34 +23 +25 комфорт 1013.3 989.4
Ю 3 40 км 9/3 2000 м
[Cu med, cong Ac trans Cs]
+21.8 +6.5 37 +23 +24 комфорт 1013.2 989.3
Ю 2 35 км 9/1 2000 м
[Cu hum Ac trans Cs]
+21.1 +8.4 44 +22 +23 комфорт 1013.2 989.2
ЮВ 1 {10} 40 км 9/1 2000 м
[Cu hum Ac trans Cs]
+20.3 +8.0 45 +23 +23 комфорт 1013.3 989.2 +14.9 +23.1
В 2 26 км н/о +18.7 +7.5 48 +20 +20 1013.6 989.4
ЮВ 2 30 км н/о +17.1 +8.0 55 +17 +17 1014.0 989.7
В 3 45 км н/о +16.7 +6.2 50 +17 +17 1014.0 989.6
В 4 {8} 30 км н/о +16.0 +5.9 51 +15 +15 1013.8 989.4
В 3 30 км н/о +15.0 +5.2 52 +14 +14 1013.7 989.2
В 2 {8} 30 км н/о +14.1 +4.4 52 +14 +14 1013.7 989.1
В 2 40 км н/о +13.1 +4.3 55 +13 +13 1013.4 988.7
В 2 40 км н/о +12.3 +3.8 56 +12 +12 1013.1 988.4
В 1 40 км н/о +11.2 +3.5 59 +11 +11 1012.8 988.0
В 1 35 км н/о +11.9 +4.1 59 +12 +12 1012.5 987.8
В 2 35 км н/о +13.4 +4.8 56 +13 +13 1012.3 987.7
В 2 26 км 4/0
[Ac trans Ci sp]
+14.9 +5.1 52 +15 +19 1012.5 988.0 +11.1 +20.3
В 3 30 км 8/0
[Ac trans Cs]
+17.0 +5.9 48 +17 +22 1012.1 987.8
В 3 30 км осадки на расстоянии 9/0
[Ac cast Cs]
+18.0 +5.6 44 +18 +24 1011.9 987.7
В 4 30 км 9/1 1000 м
[Cu med, cong Ac As Cs]
+18.6 +4.7 40 +19 +24 1012.0 987.8
В 3 20 км осадки на расстоянии 9/1 2000 м
[Sc Ac As]
+19.0 +6.1 43 +20 +24 1012.0 987.9
Ю 5 17 км слаб. дождь 10/3 1500 м
[Sc As op]
+13.5 +8.8 73 +12 +13 1013.2 988.6
Ю 4 20 км слаб. дождь 10/4 1500 м
[Sc As op]
+12.9 +9.9 82 +11 +12 1013.5 988.8 1
ЮВ 3 15 км слаб. дождь 10/4 1500 м
[Sc As op]
+12.8 +10.2 84 +11 +13 1013.5 988.8
В 1 20 км слаб. дождь 10/5 1500 м
[Sc As op]
+13.1 +9.7 80 +13 +14 1013.3 988.6
СВ 1 15 км слаб. дождь 10/8 1000 м
[Sc As op]
+13.1 +10.5 84 +13 +14 1013.3 988.6
В 1 20 км в посл. час дождь 10/10 1000 м
[Sc]
+13.3 +10.8 85 +13 +13 1013.1 988.5
В 1 23 км 9/9 1000 м
[Sc]
+13.6 +11.3 86 +14 +14 1013.1 988.5
Ю 1 30 км {дождь} 9/9 1000 м
[Sc]
+13.5 +10.5 82 +14 +14 1013.3 988.7 +12.7 +19.1 3
В 1 30 км н/о +13.3 +10.7 84 +13 +13 1013.4 988.8
В 1 22 км н/о +13.0 +11.1 88 +13 +13 1013.5 988.8
Ю 1 7000 м дымка н/о +11.2 +10.4 95 +11 +11 1013.7 988.9
ЮЗ 1 200 м туман н/о +9.4 +8.9 97 +9 +9 1014.0 989.0
ЮЗ 1 2800 м в посл. час туман н/о +8.9 +8.8 99 +8 +8 1014.0 989.0
ЮВ 1 6000 м дымка н/о +9.8 +9.5 98 +9 +9 1014.0 989.0
ЮВ 1 6000 м дымка н/о +10.0 +9.5 97 +9 +9 1014.0 989.1
ЮВ 1 6000 м дымка н/о +10.6 +10.1 97 +10 +10 1014.2 989.3
ЮВ 2 7000 м дымка н/о +10.5 +9.9 96 +9 +9 1014.1 989.2
Ю 3 9000 м дымка н/о +10.8 +10.2 96 +9 +9 1014.4 989.5
Ю 2 12 км н/о +12.1 +10.8 92 +11 +11 1014.5 989.7
Ю 2 20 км 3/1 600 м
[Sc Cs]
+13.7 +11.0 84 +13 +17 1014.6 990.0 +8.2 +13.7 3.1
Ю 3 26 км 3/1 600 м
[Cu hum Ac trans Cs]
+15.3 +11.3 77 +15 +20 1014.7 990.2
Ю 3 30 км 4/1 600 м
[Cu med, cong Ac trans Cs]
+16.8 +12.3 75 +17 +24 1014.6 990.2
Ю 3 35 км 6/1 600 м
[Cu med, cong Ac trans Cs]
+18.1 +10.9 63 +18 +26 1014.7 990.4
ЮВ 2 40 км 5/3 1000 м
[Cu med, cong Ac trans Cs]
+20.0 +11.2 57 +22 +32 комфорт 1014.3 990.2
В 3 45 км 6/3 1000 м
[Cu med, cong Ac trans Cs]
+20.1 +9.6 51 +22 +29 комфорт 1014.0 989.9
ЮВ 2 45 км 9/3 1000 м
[Cu med, cong Ac trans Cs]
+21.3 +9.5 47 +23 +29 комфорт 1013.6 989.6
Ю 2 45 км 9/3 1500 м
[Cu med, cong Ac As Cs]
+21.4 +8.3 43 +23 +28 комфорт 1013.4 989.4
СВ 2 30 км в посл. час ливневой дождь 9/4 600 м
[Cb calv Ac As Ci fib]
+19.4 +10.1 55 +21 +24 комфорт 1013.1 989.0
С 2 30 км в посл. час ливневой дождь 8/4 300 м
[Cb cap Ac As Ci fib]
+19.7 +11.2 58 +22 +24 комфорт 1012.5 988.4
В 1 40 км в посл. час ливневой дождь 8/4 600 м
[Cb cap Ac cuf Ci fib]
+19.9 +11.6 59 +23 +24 комфорт 1012.4 988.3
Ю 2 40 км осадки на расстоянии 9/3 600 м
[Cb cap Ac As]
+19.1 +9.6 54 +20 +21 1012.3 988.2
ЮЗ 3 30 км слаб. ливневой дождь 9/8 600 м
[Cb cap Ac As]
+17.3 +10.9 66 +17 +17 1013.2 988.9 +13.6 +21.9 0.5
СВ 3 4600 м сильн. ливневой дождь н/о +15.1 +11.7 80 +14 +14 1013.4 988.9
СЗ 1 24 км в посл. час дождь н/о +14.6 +12.3 86 +15 +15 1013.2 988.7
штиль 0 19 км н/о +13.6 +12.3 92 +13 +13 1013.3 988.7
штиль 0 9000 м дымка н/о +13.5 +12.6 94 +13 +13 1013.4 988.8
ЮВ 1 23 км н/о +14.0 +12.6 91 +14 +14 1013.2 988.6
Ю 1 12 км н/о +13.5 +12.6 94 +14 +14 1013.0 988.4 3
ЮВ 1 11 км н/о +13.2 +12.1 93 +13 +13 1012.5 987.9
ЮВ 1 9000 м дымка н/о +12.8 +12.2 96 +13 +13 1012.3 987.6
Ю 2 12 км н/о +12.2 +11.4 95 +11 +11 1012.2 987.5
ЮВ 1 17 км н/о +12.7 +11.4 92 +13 +13 1012.6 987.9
ЮВ 2 15 км н/о +13.8 +12.0 89 +13 +13 1012.7 988.1
Ю 3 25 км 9/0
[Ac trans Ci sp]
+15.1 +12.2 83 +14 +17 1012.7 988.2 +12.0 +17.6 3 3.2
Ю 2 25 км 9/1 1500 м
[Sc Ac trans Ci sp]
+17.1 +12.8 76 +17 +21 1012.9 988.6
С 2 25 км 9/1 1500 м
[Cu med, cong Ac trans Ci sp]
+18.7 +12.2 66 +20 +26 1012.9 988.7
Ю 5 {6} 25 км 9/3 1500 м
[Cu med, cong Ac trans Ci sp]
+20.3 +11.5 57 +22 +25 комфорт 1012.7 988.7
Ю 6 35 км 9/5 1000 м
[Cu med, cong Ac trans Ci sp]
+20.3 +10.7 54 +22 +24 комфорт 1012.7 988.7
ЮВ 4 35 км 8/4 1000 м
[Cu med, cong Ac trans Ci sp]
+20.0 +10.7 55 +22 +26 комфорт 1012.6 988.5
Ю 4 {9} 40 км 5/4 1000 м
[Cu med, cong Ac trans Ci sp]
+20.9 +11.2 54 +23 +29 комфорт 1011.6 987.6
Ю 3 {10} 40 км 6/5 1000 м
[Cu med, cong Ac trans Ci sp]
+21.4 +12.0 55 +24 +29 комфорт 1010.9 987.0
Ю 4 25 км осадки на расстоянии 9/6 1000 м
[Cb cap Ac trans Ci sp]
+21.8 +12.9 57 +24 +26 комфорт 1010.3 986.4
З 2 {10} 25 км гроза без осадков {ливн. дождь} 9/6 600 м
[Cb cap Ac trans Ci sp]
+18.3 +14.6 79 +19 +21 1010.5 986.3
СВ 2 {13} 25 км гроза без осадков {ливн. дождь} 9/5 600 м
[Cb cap Ac trans Ci sp]
+17.4 +13.7 79 +18 +19 1011.0 986.8
В 2 25 км гроза без осадков 8/5 1000 м
[Cb cap Ac trans Ci sp]
+17.7 +13.8 78 +18 +19 1010.7 986.5
СЗ 1 {13} 25 км в посл. час гроза {ливн. дождь} 4/3 1000 м
[Cb cap Ac trans]
+17.3 +14.8 85 +18 +18 1010.7 986.5 +15.0 +22.1 17
С 1 11 км дымка н/о +15.4 +14.3 93 +16 +16 1011.1 986.7
СВ 1 8000 м дымка н/о +14.7 +14.1 96 +15 +15 1011.5 987.0
СЗ 1 300 м туман н/о +12.7 +12.4 98 +13 +13 1012.3 987.6
З 2 3100 м в посл. час туман н/о +12.8 +12.6 99 +12 +12 1012.9 988.2
З 5 40 км н/о +13.8 +11.5 86 +12 +12 1013.0 988.4
З 4 50 км в посл. час дождь н/о +13.4 +10.9 85 +12 +12 1012.1 987.5 0.0
Ю 2 50 км н/о +12.7 +10.6 87 +12 +12 1012.4 987.7
ЮВ 2 35 км н/о +12.1 +10.2 88 +11 +11 1012.0 987.3
ЮВ 2 27 км н/о +11.7 +10.1 90 +11 +11 1012.3 987.5
Ю 1 18 км н/о +11.8 +10.5 92 +12 +12 1012.7 987.9
ЮВ 2 29 км н/о +12.7 +10.9 89 +12 +12 1013.0 988.3
ЮВ 1 25 км 9/0
[Ac trans Cs]
+14.2 +12.1 87 +15 +18 1013.2 988.6 +11.7 +17.3 0.0 16.9
В 1 30 км 9/0
[Ac As Cs]
+15.6 +12.3 81 +16 +21 1013.4 988.9
ЮВ 1 30 км 9/1 1000 м
[Cu med, cong Ac As Cs]
+16.7 +13.2 80 +18 +24 1013.5 989.1
СЗ 2 40 км 9/1 1000 м
[Cu med, cong Ac trans Ci sp]
+17.8 +12.7 72 +18 +26 1013.6 989.3
СЗ 2 40 км 6/3 1000 м
[Cu med, cong Ac trans Ci sp]
+19.9 +13.1 65 +22 +31 комфорт 1013.2 989.1
С 2 40 км 6/3 1000 м
[Cu med, cong Ac trans Ci ing]
+21.5 +12.6 57 +24 +33 комфорт 1013.2 989.2
Ю 1 45 км 8/4 1000 м
[Cu med, cong Ac trans Ci sp]
+22.0 +10.2 47 +24 +31 комфорт 1012.7 988.8
С 3 45 км 9/4 1000 м
[Cu med, cong Ac trans Ci sp]
+21.8 +10.3 48 +24 +27 комфорт 1012.4 988.5
С 1 25 км осадки на расстоянии 8/3 1000 м
[Cb cap Ac trans Ci sp]
+23.3 +11.4 47 +26 +31 жарко 1012.0 988.2
В 2 35 км 8/3 1000 м
[Cu med, cong Ac trans Ci sp]
+22.5 +11.2 49 +25 +28 комфорт 1011.9 988.0
В 2 50 км 8/3 1000 м
[Cu med, cong Ac trans Ci sp]
+22.3 +11.4 50 +24 +26 комфорт 1011.8 987.9
ЮВ 2 40 км 6/1 1000 м
[Cu med, cong Ac trans Ci sp]
+22.2 +12.7 55 +25 +26 комфорт 1011.6 987.7
ЮВ 1 50 км 3/0
[Ac trans Ci sp]
+20.4 +13.6 65 +24 +24 комфорт 1012.0 988.0 +14.2 +23.4
Местоположение метеостанции Рацибуж (Польша): широта 50.05 долгота 18.20 высота над уровнем моря 206 м.
В архиве по умолчанию представлена погода в Рацибуже за последнюю неделю. Архивные данные за месяц целиком и за предыдущие месяцы, начиная с января 2011 года, Вы можете получить, выбрав интересующий диапазон дат из раскрывающегося списка и нажав кнопку "Найти!".
*Определитесь, кто Вы:
Внимание! Время в таблицах - всемирное. Для получения местного времени необходимо прибавить поправку, которая равна 1 ч.
Некоторые строки с данными для отдельных станций могут быть выделены курсивом. Это означает, что фактические данные отсутствуют по различным причинам, а приведенные значения являются расчетными модельными данными для данного пункта наблюдений.
Смотрите также архив погоды в соседних городах и на ближайших метеорологических станциях:
Партнеры нашего сайта:      
Пояснения к столбцам:
  • Ветер - указаны скорость ветра в м/с - средняя за 10 мин, порывы в срок и между сроками (в фигурных скобках) и направление, откуда дует ветер: С - северный,
  • СВ - северо-восточный, В - восточный, ЮВ - юго-восточный, Ю - южный, ЮЗ - юго-западный, З - западный, СЗ - северо-западный.
  • Видимость - горизонтальная дальность видимости в метрах или километрах. При видимости от 1 до 10 км при отсутствии осадков обычно наблюдается дымка, при ухудшении видимости до 1 км и менее - туман. В сухую погоду видимость может ухудшаться дымом, пылью или мглою.
  • Явления - указаны атмосферные явления, наблюдавшиеся в срок или в последний час перед сроком; фигурными скобками обозначены явления, наблюдавшиеся между сроками (за 1-3 часа до срока); квадратными скобками обозначены град или гололедные отложения с указанием их диаметра в мм.
  • Облачность - указаны через наклонную черту общая и нижняя облачность в баллах и высота нижней границы облаков в метрах; квадратными скобками обозначены формы облаков: Ci - перистые, Cs - перисто-слоистые, Cc - перисто-кучевые, Ac - высококучевые, As - высокослоистые, Sc - слоисто-кучевые, Ns - слоисто-дождевые, Cu - кучевые, Cb - кучево-дождевые. Подробнее классификацию облаков см. в Атласе облаков (PDF).
  • T - Температура воздуха - температура, измеренная на высоте 2 м над землей.
  • Td - Температура точки росы - температура, при понижении до которой содержащийся в воздухе водяной пар достигнет насыщения.
  • f - Относительная влажность воздуха - влажноcть воздуха, измеренная на высоте 2 м над землей.
  • Te - Эффективная температура - температура, которую ощущает одетый по сезону человек в тени. Характеристика душности погоды. При расчете учитывается влияние влажности воздуха и скорости ветра на теплоощущения человека.
  • Tes - Эффективная температура на солнце - температура, которую ощущает человек, с поправкой на солнечный нагрев. Характеристика знойности погоды. Зависит от высоты солнца над горизонтом, облачности и скорости ветра. Ночью, в пасмурную погоду, а также при ветре 12 м/с и более поправка равна нулю.
  • P - Атмосферное давление - приведенное к уровню моря атмосферное давление.
  • Po - Атмосферное давление - измеренное на уровне метеостанции атмосферное давление.
  • Tmin - Минимальная температура - минимум температуры воздуха на высоте 2 м над землей.
  • Tmax - Максимальная температура - максимум температуры воздуха на высоте 2 м над землей.
  • R - Количество осадков - Количество выпавших осадков за период времени, мм. При наведении курсора мыши на число - период времени, за который выпало указанное количество осадков.
  • R24 - Количество осадков - Количество выпавших осадков за 24 часа, мм.
  • S - Снежный покров - Высота снежного покрова, см. При наведении курсора мыши на число - состояние снежного покрова и степень покрытия местности в баллах.